When you browse on this site, cookies collect data to enhance your experience and personalize the content and advertising you see.
Visit our Privacy Policy to learn more. By continuing to use the site, you agree to this use of cookies and data.
  • In Hungary
  • List of Countries
  • For 7 days
  • Water Temperature
  • Weather Map
  • News
  • Weather Widgets
  • user-avatar
    Login

    Hourly Weather Waterloo

    Today, 21 November, Thursday

    Time Temperature Precipitation Wind Pressure Humidity
    00:00 +1°C° 0 mm 1 mps 736 mmHg 94%
    01:00 +1°C° 0 mm 1 mps 736 mmHg 93%
    02:00 +1°C° 0 mm 1 mps 735 mmHg 94%
    03:00 -1°C° 0 mm 2 mps 735 mmHg 94%
    04:00 -2°C° 0 mm 2 mps 734 mmHg 95%
    05:00 -2°C° 0 mm 2 mps 734 mmHg 95%
    06:00 -1°C° 0 mm 2 mps 734 mmHg 95%
    07:00 -1°C° 0 mm 2 mps 734 mmHg 96%
    08:00 0°C° 0 mm 3 mps 733 mmHg 94%
    09:00 0°C° 0 mm 4 mps 733 mmHg 93%
    10:00 +1°C° 0 mm 5 mps 732 mmHg 92%
    11:00 +2°C° 0 mm 5 mps 731 mmHg 91%
    12:00 +2°C° 0 mm 6 mps 730 mmHg 89%
    13:00 +3°C° 0 mm 6 mps 729 mmHg 87%
    14:00 +3°C° 0.7 mm 6 mps 728 mmHg 90%
    15:00 +2°C° 0.7 mm 6 mps 727 mmHg 92%
    16:00 +2°C° 0.7 mm 6 mps 725 mmHg 94%
    17:00 +3°C° 0.9 mm 7 mps 725 mmHg 93%
    18:00 +2°C° 0.9 mm 8 mps 724 mmHg 93%
    19:00 +3°C° 0.9 mm 9 mps 723 mmHg 92%
    20:00 +5°C° 0.2 mm 9 mps 723 mmHg 92%
    21:00 +6°C° 0.2 mm 9 mps 722 mmHg 92%
    22:00 +7°C° 0.2 mm 9 mps 722 mmHg 92%
    23:00 +6°C° 0 mm 9 mps 722 mmHg 91%

    Tomorrow, 22 November, Friday

    Time Temperature Precipitation Wind Pressure Humidity
    00:00 +5°C° 0 mm 9 mps 722 mmHg 89%
    01:00 +3°C° 0 mm 9 mps 722 mmHg 88%
    02:00 +2°C° 0 mm 9 mps 723 mmHg 86%
    03:00 +1°C° 0 mm 10 mps 723 mmHg 84%
    04:00 0°C° 0 mm 10 mps 724 mmHg 83%
    05:00 -2°C° 0 mm 10 mps 725 mmHg 83%
    06:00 -3°C° 0 mm 10 mps 725 mmHg 84%
    07:00 -4°C° 0 mm 10 mps 726 mmHg 85%
    08:00 -4°C° 0 mm 10 mps 727 mmHg 82%
    09:00 -4°C° 0 mm 10 mps 727 mmHg 80%
    10:00 -4°C° 0 mm 10 mps 728 mmHg 77%
    11:00 -4°C° 0 mm 9 mps 729 mmHg 74%
    12:00 -4°C° 0 mm 9 mps 729 mmHg 71%
    13:00 -4°C° 0 mm 9 mps 729 mmHg 68%
    14:00 -4°C° 0 mm 8 mps 730 mmHg 68%
    15:00 -3°C° 0 mm 7 mps 730 mmHg 69%
    16:00 -4°C° 0 mm 6 mps 730 mmHg 70%
    17:00 -4°C° 0 mm 6 mps 731 mmHg 73%
    18:00 -5°C° 0 mm 5 mps 731 mmHg 75%
    19:00 -4°C° 0 mm 4 mps 731 mmHg 78%
    20:00 -4°C° 0 mm 3 mps 731 mmHg 79%
    21:00 -4°C° 0 mm 3 mps 731 mmHg 81%
    22:00 -3°C° 0 mm 2 mps 731 mmHg 82%
    23:00 -3°C° 0 mm 2 mps 731 mmHg 82%

    Day after tomorrow, 23 November, Saturday

    Time Temperature Precipitation Wind Pressure Humidity
    00:00 -3°C° 0 mm 2 mps 731 mmHg 82%
    01:00 -3°C° 0 mm 2 mps 731 mmHg 82%
    02:00 -3°C° 0 mm 2 mps 730 mmHg 82%
    03:00 -3°C° 0 mm 2 mps 730 mmHg 83%
    04:00 -4°C° 0 mm 3 mps 730 mmHg 83%
    05:00 -3°C° 0 mm 2 mps 730 mmHg 83%
    06:00 -3°C° 0 mm 2 mps 729 mmHg 83%
    07:00 -3°C° 0 mm 2 mps 729 mmHg 83%
    08:00 -2°C° 0 mm 2 mps 729 mmHg 76%
    09:00 -1°C° 0 mm 3 mps 729 mmHg 70%
    10:00 0°C° 0 mm 3 mps 729 mmHg 63%
    11:00 +1°C° 0 mm 3 mps 728 mmHg 61%
    12:00 +3°C° 0 mm 2 mps 727 mmHg 59%
    13:00 +4°C° 0 mm 2 mps 726 mmHg 57%
    14:00 +3°C° 0 mm 2 mps 725 mmHg 61%
    15:00 +2°C° 0 mm 3 mps 724 mmHg 65%
    16:00 +1°C° 0 mm 3 mps 723 mmHg 69%
    17:00 +1°C° 0.2 mm 3 mps 723 mmHg 75%
    18:00 0°C° 0.2 mm 3 mps 722 mmHg 80%
    19:00 -1°C° 0.2 mm 3 mps 721 mmHg 86%
    20:00 -2°C° 0.8 mm 4 mps 721 mmHg 89%
    21:00 -2°C° 0.8 mm 4 mps 720 mmHg 93%
    22:00 -2°C° 0.8 mm 4 mps 719 mmHg 96%
    23:00 -2°C° 0.2 mm 4 mps 718 mmHg 96%

    24 November, Sunday

    Time Temperature Precipitation Wind Pressure Humidity
    00:00 0°C° 0.2 mm 3 mps 718 mmHg 97%
    01:00 0°C° 0.2 mm 3 mps 717 mmHg 97%
    02:00 0°C° 0.5 mm 3 mps 717 mmHg 98%
    03:00 +1°C° 0.5 mm 2 mps 717 mmHg 98%
    04:00 +1°C° 0.5 mm 2 mps 717 mmHg 98%
    05:00 -1°C° 0.5 mm 3 mps 717 mmHg 98%
    06:00 -2°C° 0.5 mm 4 mps 717 mmHg 97%
    07:00 -2°C° 0.5 mm 5 mps 717 mmHg 96%
    08:00 -2°C° 0.1 mm 5 mps 717 mmHg 96%
    09:00 -2°C° 0.1 mm 5 mps 718 mmHg 96%
    10:00 -2°C° 0.1 mm 5 mps 718 mmHg 96%
    11:00 -3°C° 0.2 mm 6 mps 718 mmHg 96%
    12:00 -2°C° 0.2 mm 6 mps 718 mmHg 96%
    13:00 -2°C° 0.2 mm 6 mps 718 mmHg 96%
    14:00 -2°C° 0 mm 6 mps 719 mmHg 93%
    15:00 -2°C° 0 mm 6 mps 719 mmHg 89%
    16:00 -2°C° 0 mm 6 mps 719 mmHg 86%
    17:00 -1°C° 0 mm 5 mps 720 mmHg 88%
    18:00 -2°C° 0 mm 5 mps 720 mmHg 91%
    19:00 -2°C° 0 mm 5 mps 720 mmHg 94%
    20:00 -2°C° 0.1 mm 5 mps 720 mmHg 94%
    21:00 -3°C° 0.1 mm 6 mps 721 mmHg 95%
    22:00 -3°C° 0.1 mm 6 mps 721 mmHg 96%
    23:00 -3°C° 0.1 mm 6 mps 721 mmHg 94%

    25 November, Monday

    Time Temperature Precipitation Wind Pressure Humidity
    00:00 -3°C° 0.1 mm 6 mps 721 mmHg 92%
    01:00 -2°C° 0.1 mm 5 mps 721 mmHg 91%
    02:00 -4°C° 0 mm 5 mps 721 mmHg 91%
    03:00 -4°C° 0 mm 5 mps 722 mmHg 92%
    04:00 -3°C° 0 mm 4 mps 722 mmHg 93%
    05:00 -4°C° 0 mm 4 mps 722 mmHg 93%
    06:00 -4°C° 0 mm 4 mps 722 mmHg 93%
    07:00 -4°C° 0 mm 4 mps 723 mmHg 93%
    08:00 -3°C° 0 mm 4 mps 723 mmHg 92%
    09:00 -2°C° 0 mm 5 mps 723 mmHg 91%
    10:00 -1°C° 0 mm 5 mps 723 mmHg 90%
    11:00 -2°C° 0 mm 6 mps 723 mmHg 90%
    12:00 -1°C° 0 mm 6 mps 723 mmHg 90%
    13:00 +1°C° 0 mm 6 mps 723 mmHg 90%
    14:00 +1°C° 0 mm 6 mps 723 mmHg 90%
    15:00 +1°C° 0 mm 5 mps 723 mmHg 91%
    16:00 +1°C° 0 mm 5 mps 723 mmHg 91%
    17:00 +1°C° 0 mm 5 mps 723 mmHg 92%
    18:00 +1°C° 0 mm 5 mps 724 mmHg 92%
    19:00 +1°C° 0 mm 5 mps 724 mmHg 92%
    20:00 +1°C° 0 mm 5 mps 724 mmHg 93%
    21:00 +1°C° 0 mm 4 mps 724 mmHg 93%
    22:00 +1°C° 0 mm 4 mps 724 mmHg 94%
    23:00 +1°C° 0 mm 4 mps 725 mmHg 94%

    26 November, Tuesday

    Time Temperature Precipitation Wind Pressure Humidity
    00:00 +1°C° 0 mm 4 mps 725 mmHg 94%
    01:00 +1°C° 0 mm 4 mps 725 mmHg 94%
    02:00 +1°C° 0 mm 4 mps 725 mmHg 95%
    03:00 +1°C° 0 mm 4 mps 726 mmHg 95%
    04:00 +2°C° 0 mm 3 mps 726 mmHg 96%
    05:00 +2°C° 0 mm 3 mps 726 mmHg 96%
    06:00 +1°C° 0 mm 4 mps 726 mmHg 96%
    07:00 +1°C° 0 mm 4 mps 726 mmHg 97%
    08:00 +1°C° 0 mm 4 mps 727 mmHg 96%
    09:00 +2°C° 0 mm 5 mps 727 mmHg 95%
    10:00 +3°C° 0 mm 5 mps 727 mmHg 94%
    11:00 +3°C° 0 mm 5 mps 727 mmHg 91%
    12:00 +5°C° 0 mm 5 mps 727 mmHg 87%
    13:00 +6°C° 0 mm 5 mps 727 mmHg 84%
    14:00 +6°C° 0 mm 5 mps 726 mmHg 83%
    15:00 +6°C° 0 mm 5 mps 726 mmHg 81%
    16:00 +6°C° 0 mm 4 mps 726 mmHg 80%
    17:00 +6°C° 0 mm 5 mps 725 mmHg 80%
    18:00 +6°C° 0 mm 5 mps 725 mmHg 79%
    19:00 +6°C° 0 mm 5 mps 725 mmHg 79%
    20:00 +5°C° 0 mm 6 mps 724 mmHg 77%
    21:00 +5°C° 0 mm 6 mps 723 mmHg 76%
    22:00 +5°C° 0 mm 7 mps 722 mmHg 74%
    23:00 +5°C° 0.2 mm 7 mps 721 mmHg 73%
    Show more